Aérodrome :
LOGIN :

S'inscrire | Disclaimer

   EN    FR    IT 

 










Légende :    VFR   VFR Marginal   IFR   IFR Intensif   IFR Très Intensif
Visi : 
Plafond : 
>= 8 km
>= 3000ft
5 à 8 km
1000 à 3000 ft
1500m à 5 km
500 à 1000 ft
800 à 1500m
200 à 500 ft
< 800m
< 200 ft
Symboles :   Orages  Brouillard  Fortes neiges  Fortes précipitations  Vent > 20 kt
SIGMETs :   Divers  Orages  Givrage  Turbulence  Onde Orograph.  Cendres Volcan.







- Altitude de l'aérodrome : 1234 ft
- Code IATA : LUX


ELLX - Luxembourg Findel

DERNIER METAR :
  • 232050Z 27004KT CAVOK 12/08 Q1019 NOSIG

METARs EXPIRÉS :
  • 232020Z 26005KT CAVOK 13/07 Q1018 NOSIG
  • 231950Z 27006KT 230V320 CAVOK 13/07 Q1018 NOSIG
  • 231920Z 26007KT CAVOK 14/07 Q1018 NOSIG
  • 231850Z 26009KT 9999 FEW048 15/08 Q1018 NOSIG
  • 231820Z 26012KT 9999 FEW030 15/08 Q1018 NOSIG

TAF TAF ELLX
Valide du 23 à 18h jusqu'au 25 à 00h UTC


231700Z 2318/2424 26014KT CAVOK
BECMG 2318/2320 26007KT
TEMPO 2408/2417 24012G25KT
ATIS : +352 4798 27300
Météo : +352 4798 27010 / 27050
Pas de NOTAMs connus pour ce terrain.



MET'MAP, la Météo Aéronautique d'un coup d'oeil ! - Copyright ORBIFLY Décembre 2007 - Disclaimer

ORBIFLY MET'MAP TEAM :

Programmation & Développement : Alexandra Zaïnal
Conception & Développement : Baudouin d'Aumeries
Co-Programmation & Développement : Marc-Olivier Méhu
Soutien technique & logistique : Manuel Goepfert

Contact : metmap@orbifly.com




SOURCES & CREDITS :

   NOAA